This demonstration page uses our WeatherBlox Daily Observations layout. Learn more.

Left ArrowRight Arrow

39.92423, -83.80882

Hourly Observations for February 8, 2019

Temp ( °F °C ) Dew Point ( °F °C ) Humidity (%) Winds ( mph kmh ) Pressure ( in mb ) Visibility ( mi km ) Precip ( " mm )
12:33 am 00:33 Cloudy 34 1 28 -2 81 81 W 20 31 30.02 1017 10 16.0934 0.01 0.254
12:56 am 00:56 Cloudy 32 undefined 27 -2.8 82 82 W 30 48 30 1016 10 16.0934 0.01 0.254
1:56 am 01:56 Cloudy 30 -1.1 27 -2.8 88 88 W 17 28 30.06 1018 10 16.0934 N/A
2:56 am 02:56 Cloudy 28 -2.2 23 -5 81 81 W 28 44 30.09 1019 10 16.0934 N/A
3:56 am 03:56 Mostly Cloudy 24 -4.4 19 -7.2 81 81 W 23 37 30.14 1021 10 16.0934 N/A
4:56 am 04:56 Cloudy 24 -4.4 18 -7.8 77 77 WSW 26 43 30.18 1022 10 16.0934 N/A
5:56 am 05:56 Cloudy with Light Snow 22 -5.6 17 -8.3 82 82 W 16 26 30.23 1024 9 14.48406 N/A
6:56 am 06:56 Windy with Snow Likely 21 -6.1 16 -8.9 81 81 W 25 41 30.27 1025 9 14.48406 N/A
7:56 am 07:56 Windy with Snow Likely 19 -7.2 14 -10 81 81 W 20 31 30.32 1027 9 14.48406 N/A
8:56 am 08:56 Cloudy with Light Snow 20 -6.7 15 -9.4 81 81 W 18 30 30.37 1028 6 9.65604 N/A
9:56 am 09:56 Cloudy 20 -6.7 14 -10 78 78 W 22 35 30.4 1030 10 16.0934 N/A
10:56 am 10:56 Mostly Cloudy 21 -6.1 14 -10 74 74 W 25 41 30.43 1031 10 16.0934 N/A
11:56 am 11:56 Mostly Cloudy 22 -5.6 14 -10 71 71 W 25 41 30.47 1032 10 16.0934 N/A
12:09 pm 12:09 Partly Cloudy 21 -6 14 -10 74 74 W 23 37 30.51 1033 10 16.0934 N/A
12:56 pm 12:56 Mostly Cloudy 23 -5 15 -9.4 72 72 WSW 20 31 30.47 1032 10 16.0934 N/A
1:56 pm 13:56 Mostly Cloudy 23 -5 15 -9.4 72 72 W 22 35 30.49 1032 10 16.0934 N/A
2:56 pm 14:56 Cloudy 24 -4.4 15 -9.4 68 68 W 17 28 30.5 1033 10 16.0934 N/A
3:56 pm 15:56 Cloudy 23 -5 15 -9.4 72 72 W 16 26 30.52 1034 10 16.0934 N/A
4:56 pm 16:56 Cloudy 23 -5 14 -10 68 68 W 18 30 30.53 1034 10 16.0934 N/A
5:56 pm 17:56 Mostly Cloudy 21 -6.1 13 -10.6 71 71 W 18 30 30.57 1035 10 16.0934 N/A
6:56 pm 18:56 Mostly Cloudy 20 -6.7 13 -10.6 74 74 W 16 26 30.61 1037 10 16.0934 N/A
7:56 pm 19:56 Clear 19 -7.2 12 -11.1 74 74 WNW 17 28 30.64 1038 10 16.0934 N/A
8:22 pm 20:22 Mostly Cloudy 19 -7 12 -11 73 73 W 15 24 30.69 1039 10 16.0934 N/A
8:38 pm 20:38 Partly Cloudy 18 -8 12 -11 79 79 WNW 16 26 30.7 1040 10 16.0934 N/A
8:56 pm 20:56 Mostly Clear 18 -7.8 12 -11.1 77 77 WNW 15 24 30.68 1039 10 16.0934 N/A
9:37 pm 21:37 Mostly Cloudy 18 -8 10 -12 73 73 W 17 28 30.73 1041 10 16.0934 N/A
9:56 pm 21:56 Mostly Cloudy 17 -8.3 11 -11.7 77 77 WNW 15 24 30.72 1040 10 16.0934 N/A
10:13 pm 22:13 Partly Cloudy 18 -8 10 -12 73 73 WNW 16 26 30.75 1041 10 16.0934 N/A
10:56 pm 22:56 Mostly Cloudy 17 -8.3 10 -12.2 74 74 W 14 22 30.73 1041 10 16.0934 N/A
11:56 pm 23:56 Cloudy with Light Snow 17 -8.3 11 -11.7 77 77 NW 12 19 30.75 1041 9 14.48406 N/A

Powered by AerisWeather